Miscellaneous Local Product
Issued by NWS Hastings, NE

Home | Current Version | Previous Version | Text Only | Print | Product List | Glossary Off
Versions: 1 2 3 4 5 6 7 8 9 10 11 12 13 14 15 16 17 18 19 20 21 22 23 24 25 26 27 28 29 30 31 32 33 34 35 36 37 38 39 40 41 42 43 44 45 46 47 48 49 50

000
AXUS43 KGID 290302
MISGRI

GID CWA HOURLY WEATHER ROUNDUP
NATIONAL WEATHER SERVICE HASTINGS NE
1000 PM CDT SAT MAY 28 2016

NOTE: "FAIR" INDICATES FEW OR NO CLOUDS BELOW 12,000 FEET WITH NO
SIGNIFICANT WEATHER AND/OR OBSTRUCTIONS TO VISIBILITY.

...SOUTH CENTRAL NEBRASKA...

CITY           SKY/WX    TMP DP  RH WIND       PRES   REMARKS
GRAND ISLAND   PTCLDY    65  57  75 E3        29.98R
HASTINGS       CLEAR     66  55  67 CALM      29.98R
KEARNEY        CLEAR     66  52  59 CALM      29.99R
ORD              N/A     61  56  83 CALM      29.97R
YORK           CLEAR     66  57  72 CALM      29.97R
AURORA         CLEAR     65  58  79 E3        29.96R
LEXINGTON      CLEAR     64  56  74 S3        29.99R
HOLDREGE       CLEAR     66  54  65 SW3       29.98R
HEBRON         MOCLDY    65  58  78 CALM      29.96R

...NEBRASKA PANHANDLE...

CITY           SKY/WX    TMP DP  RH WIND       PRES   REMARKS
CHADRON        CLEAR     50  47  89 S7        30.03R
ALLIANCE       NOT AVBL
SCOTTSBLUFF    CLEAR     58  47  66 NE8       30.04R
SIDNEY         MOCLDY    59  49  69 NE7       30.07R

...WESTERN AND NORTH CENTRAL NEBRASKA...

CITY           SKY/WX    TMP DP  RH WIND       PRES   REMARKS
VALENTINE      LGT RAIN  61  50  67 W32G38    30.00R
AINSWORTH      PTCLDY    60  54  80 SE3       29.98R
ONEILL         CLEAR     61  57  86 CALM      29.96R
BROKEN BOW     PTCLDY    61  57  87 CALM      29.99R
IMPERIAL       PTCLDY    66  53  63 S3        30.02R
NORTH PLATTE   CLOUDY    60  52  74 NW15      30.03R
MCCOOK         CLEAR     66  50  56 S3        29.99R

...EASTERN NEBRASKA...

CITY           SKY/WX    TMP DP  RH WIND       PRES   REMARKS
NORFOLK        MOCLDY    59  55  87 W5        29.96R
SO SIOUX CITY  CLOUDY    63  58  83 NW9       29.91R
TEKAMAH        CLEAR     63  55  75 NW13      29.93R
COLUMBUS       CLEAR     61  52  72 NW7       29.98R
ALBION         CLEAR     57  53  88 CALM      29.98R
OMAHA EPPLEY   PTCLDY    67  56  67 W9        29.93R
MILLARD        CLEAR     67  57  70 NW7       29.93R
LINCOLN        CLEAR     69  56  62 NW8       29.96R
NEBRASKA CITY  CLEAR     64  57  78 SW8       29.94R
BEATRICE       CLEAR     65  58  77 CALM      29.95R
FALLS CITY     CLEAR     67  60  78 SW7       29.94R

...NORTHERN KANSAS...

CITY           SKY/WX    TMP DP  RH WIND       PRES   REMARKS
GOODLAND       CLEAR     65  48  54 S8        30.05R
HILL CITY      CLEAR     63  56  78 CALM      30.00R
NORTON         CLEAR     68  52  56 CALM      29.99R HAZE
PHILLIPSBURG   CLEAR     64  55  72 CALM      29.99R
SMITH CENTER   CLEAR     61  55  82 S6        29.99R
BELOIT         CLEAR     41  34  75 S6        29.98R
HAYS           CLEAR     64  54  68 S6        30.01R
RUSSELL        CLEAR     65  58  78 S8        29.99R
CONCORDIA      CLEAR     64  56  75 SW9       29.98R
SALINA         CLEAR     67  59  75 S7        29.99R
TOPEKA         CLEAR     69  58  67 SW6       29.98R



USA.gov is the U.S. government's official web portal to all federal, state and local government web resources and services.